Location: Indian Hills
(32.9760°N, 85.9450°W)
Time: 11:22:20
(UTC+00:00)

Cosmos 1092 Rocket - Pass Details

Date: 09 December 2019
Orbit: 953 x 996 km, 83.0° (Epoch: 22 January)

Event Time Altitude Azimuth Distance (km) Brightness Sun altitude
Rises 11:44:30 0° 343° (NNW) 3,648 6.6 -10.5°
Reaches altitude 10° 11:47:12 10° 335° (NNW) 2,694 5.9 -10.0°
Maximum altitude 11:52:43 36° 271° (W) 1,465 4.5 -8.9°
Drops below altitude 10° 11:58:12 10° 207° (SSW) 2,671 6.3 -7.8°
Sets 12:00:52 0° 199° (SSW) 3,613 7.0 -7.3°
